Location: �A�n Sefra
(34.9681°N, 0.4346°E)
Time: 10:52:28
(UTC+00:00)

Cosmos 44 - Pass Details

Date: 21 October 2019
Orbit: 592 x 769 km, 65.1° (Epoch: 13 November)

Event Time Altitude Azimuth Distance (km) Brightness Sun altitude
Rises 18:59:07 0° 220° (SW) 3,139 7.2 -21.7°
Reaches altitude 10° 19:01:36 10° 225° (SW) 2,195 6.4 -22.2°
Maximum altitude 19:06:28 51° 301° (WNW) 868 4.0 -23.2°
Enters shadow 19:09:45 19° 12° (NNE) 1,604 5.1 -23.9°
